This is the latest recevied weather packets stored in our database for station/object KC9DRE. If no packets are shown the sender has not sent any weather packets the latest 10 day(s).
| Time | Temp. | Humidity | Pressure | Rain* | Wind** | Luminosity | Snow |
|---|---|---|---|---|---|---|---|
| 1787526316 | 26.67° C | 52% | 1016.5 hPa | 0 mm | - | 87 W/m² | - |
| 1787526012 | 27.78° C | 49% | 1016.4 hPa | 0 mm | - | 107 W/m² | - |
| 1787525708 | 28.33° C | 52% | 1016.5 hPa | 0 mm | - | 113 W/m² | - |
| 1787525406 | 28.33° C | 50% | 1016.2 hPa | 0 mm | - | 184 W/m² | - |
| 1787525103 | 28.33° C | 50% | 1016.3 hPa | 0 mm | - | 200 W/m² | - |
| 1787524798 | 27.78° C | 50% | 1016.2 hPa | 0 mm | - | 232 W/m² | - |
| 1787524494 | 27.78° C | 51% | 1016.4 hPa | 0 mm | - | 239 W/m² | - |
| 1787524194 | 27.22° C | 50% | 1016.2 hPa | 0 mm | - | 237 W/m² | - |
| 1787523889 | 27.22° C | 49% | 1016.3 hPa | 0 mm | - | 250 W/m² | - |
| 1787523584 | 27.78° C | 50% | 1016.3 hPa | 0 mm | - | 147 W/m² | - |
| 1787523279 | 28.33° C | 50% | 1016.3 hPa | 0 mm | - | 284 W/m² | - |
| 1787522975 | 28.33° C | 49% | 1016.4 hPa | 0 mm | - | 364 W/m² | - |
| 1787522671 | 27.22° C | 53% | 1016.3 hPa | 0 mm | - | 393 W/m² | - |
| 1787522371 | 26.67° C | 55% | 1016.2 hPa | 0 mm | - | 281 W/m² | - |
| 1787522067 | 27.22° C | 54% | 1016.3 hPa | 0 mm | - | 179 W/m² | - |
| 1787521766 | 27.22° C | 57% | 1016.2 hPa | 0 mm | - | 138 W/m² | - |
| 1787521466 | 27.22° C | 53% | 1016.4 hPa | 0 mm | - | 134 W/m² | - |
| 1787521166 | 28.33° C | 49% | 1016.5 hPa | 0 mm | - | 125 W/m² | - |
| 1787520861 | 28.33° C | 48% | 1016.2 hPa | 0 mm | - | 384 W/m² | - |
| 1787520557 | 28.89° C | 45% | 1016.1 hPa | 0 mm | - | 457 W/m² | - |
| 1787520253 | 28.89° C | 48% | 1016.3 hPa | 0 mm | - | 506 W/m² | - |
| 1787519953 | 28.89° C | 44% | 1016.2 hPa | 0 mm | - | 362 W/m² | - |
| 1787519649 | 28.33° C | 51% | 1016.4 hPa | 0 mm | - | 491 W/m² | - |
| 1787519348 | 28.33° C | 48% | 1016.4 hPa | 0 mm | - | 309 W/m² | - |
| 1787519043 | 28.33° C | 46% | 1016.4 hPa | 0 mm | - | 525 W/m² | - |
* Rain latest hour (hover to see other rain measurements)
** Current wind speed in m/s (hover to see current wind gust speed)